User: anonymous   Login
Location: Dover
(39.1580°N, 75.5250°W)
Time: 21:27:17
(UTC-04:00)
Language:

SeaSat 1 - Orbit

View from above orbital plane
View from above orbital plane
View from above satellite
View from above satellite

Ground track
Ground track

The orbit data is extracted from the following two-line orbital elements,

1 10967U 78064A   15208.09178700 -.00000041  00000-0  28470-4 0  9997
2 10967 107.9934 295.9901 0001932 289.5799 070.5136 14.43416891946874
Epoch (UTC): 27 July 2015 02:12:10
Eccentricity: 0.0001932
inclination: 107.9934°
perigee height: 746 km
apogee height: 748 km
right ascension of ascending node: 295.9901°
argument of perigee: 289.5799°
revolutions per day: 14.43416891
mean anomaly at epoch: 70.5136°
orbit number at epoch: 94687

The dashed part of the orbit path shows where the satellite is in the earth's shadow,  

DLR